TimeCST,TemperatureF,Dew PointF,Humidity,Sea Level PressureIn,VisibilityMPH,Wind Direction,Wind SpeedMPH,Gust SpeedMPH,PrecipitationIn,Events,Conditions,WindDirDegrees,DateUTC
12:35 AM,28.4,23.0,80,29.47,10.0,NNW,6.9,-,N/A,,Overcast,330,2013-02-19 06:35:00
1:15 AM,28.4,24.8,86,29.48,5.0,NW,11.5,19.6,N/A,,Overcast,320,2013-02-19 07:15:00
1:35 AM,26.6,23.0,86,29.48,7.0,NW,15.0,23.0,N/A,,Overcast,320,2013-02-19 07:35:00
3:35 AM,19.4,14.0,80,29.52,7.0,NNW,20.7,28.8,N/A,Snow,Light Snow,330,2013-02-19 09:35:00
3:55 AM,19.4,12.2,74,29.53,7.0,NNW,19.6,26.5,N/A,Snow,Light Snow,340,2013-02-19 09:55:00
4:15 AM,17.6,12.2,79,29.54,5.0,NNW,17.3,24.2,N/A,Snow,Light Snow,330,2013-02-19 10:15:00
4:35 AM,17.6,10.4,73,29.55,4.0,NW,20.7,28.8,N/A,Snow,Light Snow,320,2013-02-19 10:35:00
4:55 AM,17.6,8.6,68,29.57,7.0,NNW,16.1,25.3,N/A,Snow,Light Snow,330,2013-02-19 10:55:00
5:15 AM,17.6,10.4,73,29.58,5.0,NW,13.8,18.4,N/A,Snow,Light Snow,320,2013-02-19 11:15:00
5:35 AM,14.0,10.4,86,29.59,3.0,NW,17.3,24.2,N/A,Snow,Light Snow,320,2013-02-19 11:35:00
5:55 AM,14.0,8.6,79,29.61,7.0,NNW,13.8,24.2,N/A,Snow,Light Snow,330,2013-02-19 11:55:00
6:15 AM,14.0,8.6,79,29.61,3.0,NW,11.5,20.7,N/A,Snow,Light Snow,320,2013-02-19 12:15:00
6:35 AM,12.2,5.0,73,29.63,5.0,NW,13.8,25.3,N/A,Snow,Light Snow,320,2013-02-19 12:35:00
6:55 AM,12.2,5.0,73,29.66,5.0,NNW,11.5,20.7,N/A,Snow,Light Snow,330,2013-02-19 12:55:00
7:15 AM,10.4,3.2,73,29.66,3.0,NNW,18.4,24.2,N/A,Snow,Light Snow,330,2013-02-19 13:15:00
7:35 AM,10.4,3.2,73,29.67,2.5,NNW,20.7,27.6,N/A,Snow,Light Snow,330,2013-02-19 13:35:00
7:55 AM,10.4,1.4,67,29.68,5.0,NW,16.1,19.6,N/A,Snow,Light Snow,320,2013-02-19 13:55:00
8:55 AM,8.6,1.4,73,29.71,1.5,NW,16.1,21.9,N/A,Snow,Light Snow,310,2013-02-19 14:55:00
9:15 AM,8.6,1.4,73,29.73,1.8,NW,11.5,19.6,N/A,Snow,Light Snow,320,2013-02-19 15:15:00
9:35 AM,6.8,-0.4,72,29.73,1.8,NW,17.3,26.5,N/A,Snow,Light Snow,320,2013-02-19 15:35:00
9:55 AM,6.8,-0.4,72,29.74,2.0,NNW,16.1,24.2,N/A,Snow,Light Snow,330,2013-02-19 15:55:00
10:15 AM,6.8,-2.2,67,29.75,3.0,NW,17.3,24.2,N/A,Snow,Light Snow,320,2013-02-19 16:15:00
10:35 AM,6.8,-0.4,72,29.76,2.5,NW,12.7,21.9,N/A,Snow,Light Snow,320,2013-02-19 16:35:00
10:55 AM,6.8,-2.2,67,29.77,3.0,NW,18.4,24.2,N/A,,Haze,320,2013-02-19 16:55:00
11:15 AM,6.8,-4.0,61,29.78,4.0,NW,15.0,21.9,N/A,,Haze,320,2013-02-19 17:15:00
11:35 AM,6.8,-4.0,61,29.79,5.0,NW,11.5,24.2,N/A,,Haze,320,2013-02-19 17:35:00
11:55 AM,6.8,-4.0,61,29.80,5.0,NW,16.1,27.6,N/A,,Haze,320,2013-02-19 17:55:00
12:15 PM,6.8,-4.0,61,29.81,5.0,NW,12.7,25.3,N/A,,Haze,320,2013-02-19 18:15:00
12:35 PM,8.6,-4.0,57,29.81,5.0,NNW,18.4,25.3,N/A,,Haze,340,2013-02-19 18:35:00
12:55 PM,8.6,-4.0,57,29.82,10.0,NNW,11.5,21.9,N/A,,Mostly Cloudy,330,2013-02-19 18:55:00
1:15 PM,10.4,-2.2,57,29.83,5.0,NNW,19.6,26.5,N/A,,Haze,330,2013-02-19 19:15:00
1:35 PM,10.4,-2.2,57,29.83,10.0,NNW,17.3,24.2,N/A,,Overcast,330,2013-02-19 19:35:00
1:55 PM,10.4,-4.0,52,29.84,10.0,NW,17.3,21.9,N/A,,Mostly Cloudy,320,2013-02-19 19:55:00
2:15 PM,10.4,-2.2,57,29.85,10.0,NNW,16.1,23.0,N/A,,Mostly Cloudy,330,2013-02-19 20:15:00
2:35 PM,12.2,-2.2,53,29.86,10.0,NW,16.1,20.7,N/A,,Mostly Cloudy,320,2013-02-19 20:35:00
2:55 PM,10.4,-2.2,57,29.88,10.0,NNW,16.1,23.0,N/A,,Mostly Cloudy,330,2013-02-19 20:55:00
3:15 PM,10.4,-2.2,57,29.89,10.0,NW,12.7,20.7,N/A,,Mostly Cloudy,320,2013-02-19 21:15:00
3:35 PM,10.4,-0.4,62,29.90,10.0,NNW,15.0,19.6,N/A,,Overcast,340,2013-02-19 21:35:00
3:55 PM,10.4,-0.4,62,29.92,10.0,North,13.8,21.9,N/A,,Overcast,350,2013-02-19 21:55:00
4:15 PM,8.6,-2.2,62,29.93,10.0,North,13.8,-,N/A,,Overcast,350,2013-02-19 22:15:00
4:35 PM,8.6,-2.2,62,29.95,10.0,NNW,18.4,23.0,N/A,,Overcast,340,2013-02-19 22:35:00
4:55 PM,8.6,-2.2,62,29.96,10.0,North,15.0,19.6,N/A,,Overcast,350,2013-02-19 22:55:00
5:15 PM,8.6,-2.2,62,29.98,10.0,NNW,9.2,18.4,N/A,,Overcast,340,2013-02-19 23:15:00
6:55 PM,5.0,-4.0,66,30.02,10.0,NW,11.5,19.6,N/A,,Clear,310,2013-02-20 00:55:00
7:15 PM,5.0,-4.0,66,30.03,10.0,NW,11.5,-,N/A,,Clear,310,2013-02-20 01:15:00
7:35 PM,5.0,-4.0,66,30.04,10.0,NW,9.2,16.1,N/A,,Clear,310,2013-02-20 01:35:00
8:15 PM,5.0,-4.0,66,30.04,10.0,NW,8.1,17.3,N/A,,Clear,320,2013-02-20 02:15:00
8:35 PM,5.0,-4.0,66,30.05,10.0,NW,8.1,-,N/A,,Clear,310,2013-02-20 02:35:00
8:55 PM,5.0,-4.0,66,30.06,10.0,NW,8.1,16.1,N/A,,Clear,310,2013-02-20 02:55:00
9:15 PM,5.0,-4.0,66,30.06,10.0,NW,9.2,-,N/A,,Clear,310,2013-02-20 03:15:00
9:35 PM,5.0,-2.2,72,30.07,10.0,NW,9.2,-,N/A,,Clear,310,2013-02-20 03:35:00
9:55 PM,5.0,-2.2,72,30.07,10.0,NW,9.2,16.1,N/A,,Clear,310,2013-02-20 03:55:00
10:15 PM,5.0,-2.2,72,30.08,10.0,NW,8.1,-,N/A,,Clear,310,2013-02-20 04:15:00
10:35 PM,5.0,-2.2,72,30.09,10.0,NW,9.2,-,N/A,,Clear,310,2013-02-20 04:35:00
10:55 PM,5.0,-2.2,72,30.09,10.0,NW,8.1,-,N/A,,Clear,310,2013-02-20 04:55:00
11:15 PM,5.0,-0.4,78,30.10,10.0,NW,11.5,-,N/A,,Clear,320,2013-02-20 05:15:00
11:35 PM,5.0,-0.4,78,30.11,10.0,NNW,11.5,17.3,N/A,,Clear,330,2013-02-20 05:35:00
11:55 PM,6.8,-0.4,72,30.11,10.0,NNW,12.7,20.7,N/A,,Clear,340,2013-02-20 05:55:00